Regional Weather Roundup
Issued by NWS State College, PA

Home | Current Version | Previous Version | Text Only | Print | Product List | Glossary Off
Versions: 1 2 3 4 5 6 7 8 9 10 11 12 13 14 15 16 17 18 19 20 21 22 23 24 25 26 27 28 29 30 31 32 33 34 35 36 37 38 39 40 41 42 43 44 45 46 47 48 49 50

000
ASUS41 KCTP 032003
RWRCTP

REGIONAL WEATHER ROUNDUP
NATIONAL WEATHER SERVICE STATE COLLEGE PA
400 PM EDT THU SEP 03 2015

Note: "fair" indicates few or no clouds below 12,000 feet with no
significant weather and/or obstructions to visibility.

* = STATION THAT DOES NOT REPORT PRECIPITATION /E.G. RAIN...SNOW...ETC/
    THUNDER OR FOG.

PAZ002>004-007>009-013>016-020>023-029>032-032100-
WESTERN PENNSYLVANIA

CITY           SKY/WX    TMP DP  RH WIND       PRES   REMARKS
ERIE           MOSUNNY   81  68  64 W6        29.94F
MEADVILLE      MOSUNNY   86  68  54 NW8       29.95F
FRANKLIN*      MOSUNNY   81  66  61 N5        29.97F
NEW CASTLE     FAIR      87  70  57 NW12      29.95S
BEAVER COUNTY  MOSUNNY   88  63  42 NE5       29.95F
BUTLER*        MOSUNNY   88  66  48 N3        29.96S
PITTSBURGH INT PTSUNNY   87  64  46 CALM      29.94F
PITTSBURGH     PTSUNNY   83  63  50 E8        29.94F
INDIANA*       SUNNY     84  66  54 CALM      29.98F
LATROBE        PTSUNNY   84  68  58 CALM      29.95F
WASHINGTON CO* PTSUNNY   86  64  48 W7        29.97R
$$

PAZ004>006-010>012-017>019-024>028-033>037-041-042-045-046-049>053-032100-
CENTRAL PENNSYLVANIA

CITY           SKY/WX    TMP DP  RH WIND       PRES   REMARKS
BRADFORD       MOSUNNY   83  63  50 N7        29.98F
DUBOIS         PTSUNNY   83  64  52 NW5       29.96F
CLEARFIELD     PTSUNNY   88  63  43 N5        29.95F
JOHNSTOWN      PTSUNNY   82  62  50 W7        30.00F
ALTOONA        PTSUNNY   86  62  44 NW5       29.95F
STATE COLLEGE  SUNNY     86  66  51 NW3       29.93F
WILLIAMSPORT   MOSUNNY   88  68  51 W5        29.86F
SELINSGROVE    SUNNY     90  66  45 N3        29.87F
FT INDIANTOWN  SUNNY     91  65  43 VRB1      29.87F
CAPITAL CITY   MOSUNNY   91  62  37 W7        29.86F
HARRISBURG     MOSUNNY   92  64  39 W7        29.85F
YORK           SUNNY     89  67  47 NW6       29.88F
$$

PAZ038>040-043-044-047-048-054-055-060>062-067>071-032100-
EASTERN PENNSYLVANIA

CITY           SKY/WX    TMP DP  RH WIND       PRES   REMARKS
SCRANTON       LGT RAIN  80  69  69 VRB3      29.90S
MOUNT POCONO   MOSUNNY   85  65  51 NW5       29.94F
ALLENTOWN      MOSUNNY   91  66  43 NE5       29.85F
QUAKERTOWN*    PTCLDY    90  66  45 NE6       29.87F
READING        SUNNY     91  65  41 VRB5      29.84F
LANCASTER      SUNNY     90  64  42 VRB5      29.87F
COATESVILLE    PTCLDY    90  64  43 NW3       29.88F
POTTSTOWN      MOSUNNY   90  66  45 NW6       29.86F
BLUE BELL      SUNNY     91  66  43 NE6       29.84F
DOYLESTOWN     SUNNY     90  65  43 VRB6      29.85F
WILLOW GROVE   NOT AVBL
NORTH PHILA    SUNNY     94  58  29 VRB5      29.85F
PHILADELPHIA   MOSUNNY   96  60  30 N9G18     29.83F HX  96
$$



USA.gov is the U.S. government's official web portal to all federal, state and local government web resources and services.